Regional Weather Roundup
Issued by NWS Midland/Odessa, TX

Skip options and go directly to product.
Home | Oldest Version | Next Version | Current Version | All | Text Only | Save Text | Print | Product List | Glossary On

Skip product version selection by date and time.   
124
ASUS44 KMAF 271501
RWRMAF
MIDLAND AREA WEATHER ROUNDUP
NATIONAL WEATHER SERVICE MIDLAND TX
1000 AM CDT MON JUL 27 2015

...IN SOUTHWEST TEXAS AND SOUTHEAST NEW MEXICO...

CITY           SKY/WX    TMP DP  RH WIND       PRES   REMARKS
ALPINE         SUNNY     85  56  37 SW9       30.15R
ANDREWS        FAIR      86  65  48 S10       30.00R
ARTESIA        SUNNY     84  61  45 CALM      30.01S
BIG SPRING     SUNNY     82  64  53 S15       30.00S
CARLSBAD       SUNNY     87  60  40 VRB6      29.98S
DRYDEN           N/A     85  71  63 S13       29.96R
FORT STOCKTON  SUNNY     85  65  51 SE5       29.98S
GUAD PASS      SUNNY     76  59  55 W7        30.17R
HOBBS          SUNNY     84  63  48 S13       30.02S
MARFA          MOSUNNY   81  61  50 S7        30.14R
MIDLAND AIRPK  SUNNY     86  65  49 S10       29.99S
MIDLAND INTL   SUNNY     86  67  52 S13       29.98S
ODESSA           N/A     86  64  47 S14       30.00R
PECOS          SUNNY     87  62  43 E6        29.95R
PRESIDIO       FAIR      87  56  35 MISG      29.98R
SEMINOLE       SUNNY     86  63  45 S9        30.02R
SNYDER         SUNNY     82  70  67 S12       29.99R
WINK           SUNNY     87  65  47 SE14      29.95S
$$
...OTHER STATIONS IN TEXAS...

CITY           SKY/WX    TMP DP  RH WIND       PRES   REMARKS
ABILENE        SUNNY     87  72  60 S12       29.97S
AMARILLO       SUNNY     81  65  58 SE8       30.04R
AUSTIN         PTSUNNY   83  73  72 S6        29.97R
BROWNSVILLE    MOSUNNY   84  79  85 S14       29.92R
CORPUS CHRISTI MOSUNNY   88  76  67 SE16G26   29.93R
DALLAS FTW     MOSUNNY   88  72  58 S7        29.95R
DEL RIO        SUNNY     84  72  67 SE12      29.92R
EL PASO        MOSUNNY   84  57  39 SW6       30.03R
HOUSTON INT    PTSUNNY   86  75  69 SW5       29.98S
LUBBOCK        MOSUNNY   84  65  52 S10       30.01S
SAN ANGELO     SUNNY     87  69  54 VRB6      29.96S
SAN ANTONIO    MOSUNNY   84  73  69 SE6       29.97R
WACO           SUNNY     85  74  69 S9        29.97R
WICHITA FALLS  NOT AVBL
$$
...OTHER LOCATIONS IN NEW MEXICO...

CITY           SKY/WX    TMP DP  RH WIND       PRES   REMARKS
ALAMAGORDO     MOSUNNY   81  55  41 W5        30.06R
ALBUQUERQUE    MOSUNNY   70  58  65 SE5       30.16R
CANNON AFB     SUNNY     82  63  52 SW12      30.05R
CLOVIS         SUNNY     81  64  57 SW13      30.06R
HOLLOMAN AFB   NOT AVBL
ROSWELL        SUNNY     85  55  35 CALM      30.01S
RUIDOSO          N/A    N/A N/A N/A MISG        N/A
SANTA FE       SUNNY     69  58  67 N8        30.21S
TRUTH OR CONSE SUNNY     80  52  37 NE5       30.09R
TUCUMCARI      SUNNY     83  59  44 VRB5      30.01S
$$

USA.gov is the U.S. government's official web portal to all federal, state and local government web resources and services.